Wind_Speed
23 25 25 25 25 25 26 28 28 28 28 29 29 30 32 32 33 34 35 35 33 30 28 28 26 22 10 18 35 9 8 6 14 27 42 42 34 27 11 8 9 8 10 15 26 22 20
24 23 23 26 26 28 28 27 27 29 28 29 31 32 33 34 35 35 37 40 40 38 33 31 28 24 21 27 47 37 38 32 20 18 37 39 22 28 16 8 15 9 17 16 10 18 12
21 24 23 24 27 29 28 29 30 29 31 30 31 32 34 35 39 37 40 40 39 38 38 36 29 25 31 45 26 16 17 32 36 37 28 39 42 20 9 3 21 5 5 4 7 7 8
22 24 26 26 26 27 28 28 30 31 31 32 33 33 35 37 38 41 43 43 39 34 35 36 28 21 28 26 45 47 22 21 28 32 35 33 36 29 10 5 1 6 3 12 16 11 7
23 25 24 26 27 29 30 31 31 32 33 34 34 35 36 37 39 43 46 45 43 29 30 26 20 19 16 9 35 49 41 46 30 32 33 26 37 22 11 3 3 6 14 11 11 12 5
24 25 27 27 28 28 29 31 32 33 35 37 38 38 38 38 42 44 45 48 36 13 10 3 6 10 20 7 8 18 30 41 27 31 25 20 12 8 8 12 23 10 9 6 10 7 9
26 27 27 28 29 30 31 32 34 37 37 38 40 40 40 40 41 41 46 46 30 7 27 17 33 38 54 13 22 16 11 27 33 28 15 18 13 23 33 25 8 7 10 10 3 4 7
25 26 27 27 30 31 33 35 37 39 41 42 42 41 40 39 40 34 38 19 17 16 16 28 36 40 43 46 28 40 18 19 18 21 11 6 29 28 16 21 22 20 9 11 5 3 8
25 25 26 29 31 33 34 37 40 40 41 41 41 40 38 37 38 29 34 16 22 27 10 17 31 19 20 17 32 37 23 25 19 20 22 29 33 14 21 21 24 26 27 16 5 3 3
25 27 30 31 32 33 36 37 38 40 43 43 41 39 37 36 25 33 19 25 26 24 6 7 3 9 22 26 11 18 31 25 11 26 21 21 23 25 14 26 23 26 19 14 8 3 7
27 27 29 30 31 33 35 37 39 42 43 44 43 40 37 31 28 19 21 25 30 7 4 7 4 12 25 3 16 6 34 32 20 13 15 15 10 17 23 29 17 15 11 15 8 9 3
27 26 28 29 32 34 35 37 40 41 43 45 43 42 37 23 19 19 23 27 14 1 6 10 17 18 15 7 4 10 14 12 16 6 11 28 10 18 27 12 23 9 6 5 3 4 6
26 26 27 30 31 33 35 38 39 42 45 46 46 41 16 12 13 20 28 22 4 2 14 14 20 19 17 13 9 12 8 8 6 13 14 12 12 4 6 9 6 9 10 3 1 3 14
26 27 29 30 32 33 34 37 40 42 47 50 49 24 16 16 13 23 26 5 7 10 6 16 15 22 7 13 12 17 6 8 5 14 4 16 15 13 5 10 10 24 17 6 10 8 6
27 27 28 30 31 32 34 36 40 42 43 50 49 18 20 24 18 26 8 5 2 5 7 12 17 8 7 12 10 12 6 2 8 14 6 4 26 4 10 6 15 5 17 20 6 3 3
25 26 28 30 30 32 35 37 39 42 44 46 45 19 19 29 29 19 4 2 3 3 8 7 6 7 10 12 10 10 5 4 6 10 6 5 4 15 16 6 3 14 20 5 2 6 7
25 26 28 29 29 32 34 36 38 40 44 44 32 13 18 31 18 7 1 4 5 12 13 4 4 5 6 10 13 5 6 5 8 13 15 6 5 2 6 15 15 6 10 5 5 5 7
24 25 28 30 30 32 34 36 37 39 42 44 19 4 17 27 6 1 2 3 8 7 8 4 3 2 3 10 8 5 7 8 24 10 16 4 7 8 7 4 7 20 10 16 11 12 3
26 26 28 30 31 31 33 35 36 37 36 40 18 8 19 18 3 8 4 7 7 5 5 4 4 3 3 5 5 7 6 10 21 15 5 7 3 5 5 3 5 7 6 16 9 2 10
26 26 27 30 32 32 32 33 35 37 36 36 8 5 8 8 5 4 11 5 6 9 7 5 5 2 4 12 5 7 18 9 16 18 22 8 5 9 9 12 4 13 20 12 20 15 18
27 26 27 30 31 32 33 32 34 36 36 29 4 3 3 5 8 14 11 7 13 5 3 4 5 4 3 7 15 8 14 20 14 11 2 5 8 8 14 24 10 7 7 21 14 20 14
26 27 29 30 31 32 33 34 35 34 33 17 8 5 6 8 14 8 8 2 11 5 1 8 2 16 12 6 12 22 17 16 14 8 1 1 6 9 18 14 8 5 12 12 18 18 9
26 27 29 30 31 32 34 34 34 32 28 16 18 17 5 7 5 5 5 12 10 7 8 5 13 11 14 16 21 31 34 32 22 18 13 6 4 4 5 13 6 2 3 14 6 15 5
29 30 31 31 31 33 32 33 32 28 24 21 23 18 5 4 2 5 13 15 16 13 10 15 16 4 14 38 41 29 21 16 11 13 10 7 4 3 5 6 6 4 20 15 26 17 21
30 30 30 30 31 31 32 32 31 28 25 24 24 16 3 4 4 11 8 10 20 18 6 8 17 20 29 19 5 8 6 8 7 10 2 15 4 4 4 2 4 17 16 6 5 13 20
31 31 31 30 30 31 34 34 31 31 29 24 22 19 12 4 5 18 8 13 7 4 5 7 19 18 12 3 3 4 5 4 6 14 10 11 7 3 4 4 7 12 21 22 9 11 20
33 32 30 30 30 33 35 35 33 34 30 19 18 12 11 6 16 9 5 5 9 5 5 7 11 8 10 4 3 3 3 5 5 9 9 8 4 6 7 3 5 18 24 13 9 6 22
32 31 32 32 33 38 39 37 34 33 27 14 16 10 8 7 24 11 11 18 18 14 4 13 9 2 2 4 3 3 3 3 4 4 7 6 6 5 5 5 4 29 11 8 7 14 23
32 33 34 34 36 38 41 41 36 34 23 12 13 14 11 16 20 30 20 8 10 14 19 4 5 7 3 1 1 0 3 3 3 4 9 5 5 4 6 2 5 13 14 12 19 21 24
Wind_Direction
21 17 15 10 7 8 4 1 359 356 354 351 347 343 340 337 334 331 325 319 308 293 287 272 262 265 273 230 238 195 192 211 219 216 215 213 195 196 187 196 183 227 222 217 232 234 243
18 16 11 8 8 4 2 358 354 351 350 346 344 341 337 334 332 329 325 320 309 298 286 283 277 268 241 242 246 254 247 247 248 218 208 214 217 210 207 199 189 226 231 242 218 229 223
17 11 7 9 5 1 1 360 354 348 348 346 341 339 337 336 333 333 332 321 310 299 294 286 277 265 252 241 248 255 242 237 235 232 206 213 217 204 235 273 230 220 258 285 235 218 225
15 8 8 6 0 2 359 357 354 351 349 345 342 339 337 337 333 340 334 327 318 305 290 280 272 253 251 261 254 247 237 235 226 234 232 227 212 216 209 263 301 169 152 244 248 164 224
12 4 6 4 2 2 357 354 350 348 343 340 337 337 335 335 331 338 333 329 327 313 303 279 253 213 260 278 242 254 246 230 226 218 218 217 213 208 201 159 329 240 228 209 248 198 148
8 3 6 3 3 359 355 352 349 346 342 338 337 337 335 333 332 338 333 337 338 313 347 342 208 198 251 258 266 316 259 235 218 206 203 200 185 175 189 183 218 220 226 217 216 203 196
10 5 4 4 360 354 353 352 349 346 342 337 337 336 334 335 333 337 339 348 9 348 332 297 288 286 292 275 292 305 321 218 207 181 188 180 195 206 203 206 223 263 227 262 326 189 143
9 5 1 359 359 357 355 352 348 344 340 337 333 333 332 335 334 332 340 356 351 314 302 299 285 282 276 280 279 275 275 196 200 206 156 161 216 212 193 201 211 227 239 237 313 202 186
359 3 1 2 359 358 356 352 350 347 341 337 333 331 332 331 333 335 335 340 337 329 291 284 270 261 278 297 248 254 241 210 205 213 205 206 220 178 191 187 202 217 220 220 199 41 298
4 5 3 3 2 359 357 356 351 347 346 342 337 336 334 335 337 327 346 344 330 326 300 277 335 29 358 334 255 270 267 216 215 210 203 230 226 198 191 208 195 218 210 210 190 138 238
8 3 4 3 1 0 358 357 351 350 350 352 350 346 341 339 322 326 343 344 330 318 349 321 0 322 319 303 267 356 327 216 219 189 183 214 196 205 207 218 198 229 154 196 181 203 102
3 3 3 0 1 359 357 355 353 351 349 350 351 346 342 349 354 354 345 339 333 266 264 324 333 326 348 15 272 305 14 337 223 217 223 212 192 191 216 197 202 125 89 77 82 121 242
2 1 0 2 0 360 357 353 350 350 352 352 352 351 0 6 356 347 343 335 24 7 343 332 328 335 320 350 1 1 359 334 286 218 211 217 228 266 133 170 153 174 147 147 151 172 238
2 0 1 1 359 356 352 351 349 348 351 354 356 5 21 4 350 345 344 36 56 337 316 309 314 316 6 18 337 339 324 330 336 245 225 221 226 207 200 198 174 195 180 166 193 193 215
0 359 1 0 357 352 350 351 349 351 348 352 355 9 3 5 336 341 352 43 272 326 309 319 323 340 341 1 347 353 310 303 46 26 312 269 237 221 168 171 163 195 210 209 91 35 93
357 358 358 357 354 352 351 350 351 352 351 353 351 354 6 354 341 336 61 278 265 276 317 325 327 353 325 349 347 334 287 80 19 30 342 281 269 220 205 135 217 166 199 205 205 159 219
358 355 355 354 353 353 351 350 352 352 351 354 352 350 354 353 355 16 93 245 278 312 326 328 299 311 327 328 323 309 313 1 25 2 341 280 260 319 143 201 196 176 184 185 195 179 207
350 351 352 353 354 352 352 351 352 352 350 355 344 335 338 352 39 33 313 258 308 303 311 286 290 283 296 327 323 319 315 316 3 352 334 321 301 231 207 287 221 215 190 188 204 228 270
348 348 348 350 353 352 352 351 352 351 354 348 332 286 345 354 29 336 292 287 272 296 297 312 287 258 311 312 326 296 305 310 319 336 341 324 328 307 187 5 318 199 174 194 199 122 210
348 346 345 348 350 350 349 352 351 352 352 350 328 318 326 344 345 322 316 332 308 309 283 243 272 337 346 317 256 281 291 301 329 307 305 285 248 229 276 217 132 200 201 193 197 218 223
347 345 348 348 347 346 347 354 351 351 352 353 315 285 310 306 326 311 303 294 300 314 287 326 308 251 253 298 308 283 300 301 311 314 96 4 264 274 271 264 237 190 194 209 200 213 214
349 347 347 346 344 343 344 353 350 349 348 341 328 288 289 274 299 311 304 299 301 306 278 308 243 306 308 238 274 291 293 297 284 293 64 168 274 304 295 220 188 158 197 197 221 229 231
350 348 346 344 342 342 343 347 346 346 348 340 338 312 275 275 311 314 312 325 305 326 284 252 293 302 303 295 296 283 279 273 261 267 265 245 253 300 281 155 121 77 278 184 163 32 300
347 345 345 344 342 342 342 343 346 346 346 331 329 319 261 276 266 290 301 312 322 315 297 297 303 271 295 312 305 297 278 272 258 248 232 254 260 265 261 174 177 103 28 73 87 45 25
342 342 342 343 345 345 342 343 343 346 342 330 331 296 233 270 263 303 308 308 309 299 276 277 304 309 321 319 330 338 337 4 8 0 207 221 250 282 324 322 75 29 354 350 6 58 21
345 344 344 346 350 349 349 342 343 345 338 329 320 313 281 295 251 315 309 307 315 314 307 255 316 330 341 329 7 353 9 295 334 333 325 337 196 321 328 31 34 329 335 325 234 44 7
347 344 347 350 350 350 347 343 343 339 339 331 326 326 285 247 288 292 300 295 296 302 278 300 334 337 5 9 352 347 316 336 355 326 333 355 340 350 358 18 79 335 343 359 60 327 324
348 350 349 349 349 349 346 344 341 338 338 330 318 321 299 273 295 282 290 293 289 284 283 313 331 339 356 39 45 311 322 323 314 294 338 29 319 350 349 20 0 343 13 48 342 316 330
343 343 344 345 345 346 345 343 341 340 338 335 317 319 316 263 275 298 298 286 295 296 266 271 261 300 319 103 179 39 313 329 347 314 23 32 25 284 24 47 9 326 85 22 357 337 334
Height
1541 1538 1535 1531 1526 1523 1518 1514 1509 1506 1502 1498 1493 1487 1482 1476 1470 1464 1458 1453 1450 1446 1443 1442 1442 1442 1442 1437 1416 1420 1421 1422 1424 1426 1432 1439 1440 1442 1445 1443 1445 1444 1436 1437 1436 1441 1441
1544 1539 1534 1531 1527 1523 1518 1514 1509 1504 1500 1495 1490 1485 1479 1473 1467 1460 1454 1447 1442 1438 1437 1435 1435 1434 1433 1416 1407 1413 1417 1418 1421 1421 1425 1435 1437 1436 1435 1434 1436 1430 1431 1429 1433 1435 1438
1543 1539 1535 1531 1527 1522 1518 1514 1509 1503 1498 1493 1488 1482 1475 1470 1463 1455 1448 1440 1434 1429 1426 1424 1425 1424 1417 1388 1403 1406 1405 1407 1411 1415 1416 1422 1432 1435 1434 1434 1430 1427 1432 1431 1427 1426 1430
1544 1540 1535 1531 1526 1521 1517 1512 1507 1501 1496 1491 1484 1479 1472 1465 1458 1450 1442 1433 1426 1419 1415 1413 1414 1414 1389 1384 1395 1398 1403 1401 1404 1408 1413 1416 1421 1428 1430 1430 1428 1429 1430 1434 1414 1424 1424
1544 1540 1535 1530 1525 1521 1516 1510 1505 1499 1494 1488 1481 1475 1469 1461 1453 1444 1435 1426 1418 1410 1405 1402 1403 1404 1385 1381 1383 1387 1393 1391 1399 1400 1407 1414 1416 1417 1424 1432 1436 1429 1419 1426 1416 1413 1418
1544 1540 1535 1531 1525 1519 1514 1509 1503 1497 1491 1484 1477 1471 1464 1456 1448 1440 1429 1418 1408 1402 1400 1397 1399 1403 1383 1380 1382 1381 1382 1388 1390 1395 1403 1406 1409 1411 1416 1421 1412 1417 1423 1416 1407 1408 1413
1545 1541 1536 1529 1524 1519 1514 1507 1501 1495 1488 1481 1474 1467 1459 1452 1444 1437 1426 1412 1403 1403 1403 1409 1400 1393 1379 1380 1380 1380 1380 1378 1386 1388 1389 1392 1401 1384 1378 1393 1404 1408 1415 1415 1408 1405 1410
1544 1538 1534 1528 1524 1518 1513 1506 1500 1493 1485 1478 1471 1463 1456 1451 1443 1435 1430 1425 1424 1423 1400 1400 1391 1384 1379 1381 1375 1372 1379 1380 1377 1370 1380 1393 1369 1361 1383 1392 1397 1404 1412 1413 1413 1407 1410
1541 1536 1532 1527 1523 1517 1511 1504 1497 1490 1483 1476 1467 1459 1453 1447 1439 1433 1429 1426 1423 1418 1408 1388 1371 1377 1374 1373 1364 1361 1371 1370 1368 1373 1372 1358 1335 1374 1376 1383 1392 1388 1395 1405 1411 1409 1411
1541 1537 1532 1528 1522 1516 1510 1503 1496 1489 1480 1471 1461 1455 1449 1443 1438 1432 1427 1424 1421 1417 1409 1384 1374 1379 1376 1366 1360 1360 1358 1365 1360 1355 1363 1365 1364 1364 1371 1372 1374 1382 1379 1395 1406 1415 1422
1543 1537 1532 1527 1520 1514 1509 1503 1496 1486 1478 1469 1460 1452 1447 1440 1436 1432 1427 1422 1417 1416 1439 1384 1381 1376 1374 1371 1368 1351 1349 1350 1347 1347 1357 1351 1357 1363 1365 1347 1373 1367 1379 1392 1401 1408 1414
1543 1538 1532 1525 1520 1515 1509 1502 1495 1486 1477 1467 1457 1449 1442 1436 1434 1432 1426 1420 1415 1417 1427 1391 1385 1379 1374 1367 1361 1355 1349 1344 1346 1348 1345 1341 1347 1354 1346 1358 1363 1372 1385 1394 1402 1412 1425
1541 1536 1531 1526 1521 1516 1511 1504 1495 1486 1475 1466 1455 1446 1438 1435 1434 1431 1425 1419 1425 1426 1408 1400 1389 1382 1374 1369 1362 1354 1352 1359 1360 1348 1347 1346 1346 1343 1343 1361 1366 1372 1379 1407 1417 1421 1385
1542 1538 1533 1528 1523 1517 1511 1503 1495 1485 1476 1465 1455 1448 1443 1438 1435 1431 1426 1425 1442 1416 1414 1407 1398 1384 1377 1378 1371 1363 1359 1354 1348 1348 1344 1341 1346 1342 1337 1341 1354 1358 1360 1379 1379 1390 1373
1543 1538 1532 1526 1521 1515 1509 1502 1494 1485 1475 1464 1453 1446 1444 1440 1436 1432 1428 1444 1437 1426 1419 1409 1397 1389 1384 1387 1384 1371 1363 1360 1361 1361 1358 1339 1328 1329 1331 1336 1338 1358 1361 1340 1369 1381 1386
1540 1535 1531 1526 1521 1514 1509 1502 1495 1485 1477 1466 1455 1446 1443 1439 1436 1432 1434 1434 1430 1423 1418 1414 1412 1402 1399 1397 1397 1390 1371 1364 1366 1371 1371 1352 1336 1321 1323 1328 1330 1331 1342 1358 1362 1372 1364
1542 1536 1530 1524 1518 1513 1507 1500 1494 1486 1475 1466 1455 1450 1446 1441 1435 1435 1446 1440 1428 1423 1420 1418 1417 1413 1407 1400 1396 1390 1372 1365 1373 1369 1366 1357 1339 1324 1319 1317 1322 1331 1334 1340 1339 1353 1348
1539 1535 1530 1526 1520 1514 1507 1501 1494 1487 1478 1467 1460 1458 1448 1442 1439 1441 1441 1436 1428 1422 1420 1417 1413 1411 1410 1403 1398 1393 1382 1377 1365 1369 1368 1362 1353 1325 1323 1315 1311 1309 1317 1323 1337 1347 1364
1540 1535 1531 1524 1518 1512 1507 1500 1493 1486 1480 1471 1462 1454 1448 1445 1451 1441 1437 1433 1428 1424 1421 1419 1415 1411 1408 1408 1410 1397 1385 1378 1379 1377 1380 1374 1354 1335 1318 1317 1316 1311 1314 1313 1323 1334 1339
1540 1536 1529 1523 1517 1512 1505 1499 1492 1485 1479 1473 1467 1462 1450 1447 1448 1446 1437 1431 1428 1424 1420 1418 1415 1412 1412 1407 1404 1401 1390 1378 1377 1375 1369 1368 1356 1348 1326 1300 1306 1308 1302 1309 1310 1321 1317
1537 1532 1528 1523 1517 1510 1503 1498 1492 1486 1480 1476 1470 1467 1462 1456 1446 1445 1442 1435 1428 1425 1420 1418 1415 1413 1416 1410 1399 1391 1383 1378 1373 1366 1366 1369 1354 1343 1331 1316 1304 1299 1305 1303 1310 1308 1320
1538 1532 1526 1520 1514 1508 1503 1496 1488 1484 1478 1474 1473 1470 1462 1455 1448 1444 1438 1431 1428 1427 1425 1420 1420 1410 1407 1412 1403 1390 1384 1380 1370 1360 1363 1369 1358 1340 1320 1300 1301 1302 1300 1305 1306 1305 1313
1534 1528 1523 1518 1512 1507 1503 1496 1491 1485 1479 1473 1470 1466 1462 1452 1448 1447 1440 1436 1429 1424 1419 1419 1414 1410 1403 1395 1388 1378 1372 1366 1361 1363 1369 1370 1355 1336 1299 1296 1301 1311 1310 1303 1308 1332 1319
1533 1527 1520 1516 1510 1504 1497 1492 1485 1481 1477 1472 1468 1463 1460 1454 1448 1445 1439 1437 1429 1426 1422 1415 1411 1408 1398 1388 1376 1364 1355 1351 1351 1355 1360 1355 1350 1338 1311 1292 1286 1321 1322 1319 1333 1346 1345
1531 1524 1517 1510 1504 1498 1491 1485 1480 1475 1472 1468 1463 1458 1455 1451 1444 1439 1436 1433 1426 1422 1419 1413 1408 1405 1397 1386 1380 1375 1360 1352 1350 1352 1350 1352 1349 1333 1311 1295 1302 1321 1326 1330 1321 1345 1354
1528 1521 1514 1507 1501 1495 1487 1481 1476 1471 1467 1461 1458 1456 1453 1451 1442 1437 1434 1431 1427 1423 1417 1410 1407 1403 1398 1393 1392 1399 1377 1380 1370 1361 1349 1343 1344 1344 1331 1317 1329 1347 1334 1330 1328 1338 1352
1525 1519 1512 1505 1498 1491 1484 1478 1473 1467 1461 1458 1453 1451 1449 1446 1435 1436 1435 1433 1428 1424 1420 1411 1408 1402 1400 1401 1401 1400 1394 1383 1383 1377 1364 1351 1348 1348 1334 1322 1346 1361 1348 1329 1341 1375 1365
1523 1516 1510 1504 1498 1490 1482 1475 1467 1462 1457 1454 1450 1448 1446 1443 1433 1430 1430 1429 1426 1425 1421 1414 1411 1407 1405 1412 1414 1407 1401 1394 1390 1379 1375 1382 1378 1358 1349 1346 1364 1375 1356 1364 1384 1380 1373
1518 1513 1508 1501 1494 1487 1479 1472 1464 1457 1453 1450 1447 1445 1443 1440 1432 1428 1424 1422 1422 1420 1420 1416 1414 1412 1408 1409 1416 1417 1405 1405 1402 1389 1390 1398 1411 1401 1392 1387 1396 1390 1389 1391 1390 1385 1375